Regional Weather Roundup
Issued by NWS

Home | Current Version | Previous Version | Graphics & Text | Print | Product List | Glossary On
Versions: 1 2 3 4 5 6 7 8 9 10 11 12 13 14 15 16 17 18 19 20 21 22 23 24 25 26 27 28 29 30 31 32 33 34 35 36 37 38 39 40 41 42 43 44 45 46 47 48 49 50
000
ASUS43 KLMK 231010
RWRKY
KENTUCKY REGIONAL WEATHER ROUNDUP
NATIONAL WEATHER SERVICE LOUISVILLE KY
600 AM EDT TUE AUG 23 2016

NOTE "FAIR" INDICATES FEW OR NO CLOUDS BELOW 12,000 FEET
WITH NO SIGNIFICANT WEATHER AND/OR OBSTRUCTIONS TO VISIBILITY.

KYZ001>023-026-027-061>063-070>075-231100-
WESTERN AND SOUTH CENTRAL KENTUCKY

CITY           SKY/WX    TMP DP  RH WIND       PRES   REMARKS
PADUCAH        PTCLDY    63  61  93 SE3       30.18R
HENDERSON      CLEAR     59  55  88 CALM      30.20R
OWENSBORO      CLEAR     62  62 100 CALM      30.22R
HOPKINSVILLE   CLEAR     62  61  96 CALM      30.20S
BOWLING GREEN  FOG       61  59  93 CALM      30.22S VSB 3/4
GLASGOW        CLEAR     59  59 100 CALM      30.23S
$$

KYZ024-025-028>034-038-045-046-053-231100-
NORTH CENTRAL KENTUCKY

CITY           SKY/WX    TMP DP  RH WIND       PRES   REMARKS
LOUISVILLE/SDF PTCLDY    64  60  87 CALM      30.23S
LOUISVILLE/LOU CLEAR     62  59  90 CALM      30.24S
FORT KNOX      CLEAR     60  59  98 NE1       30.22S
$$

KYZ035>037-039>044-047>052-055>060-089>105-231100-
NORTHEAST KENTUCKY

CITY           SKY/WX    TMP DP  RH WIND       PRES   REMARKS
LEXINGTON      CLEAR     61  55  81 SE6       30.26R
COVINGTON      CLEAR     62  58  86 CALM      30.26R
FRANKFORT      PTCLDY    58  56  93 CALM      30.25R FOG
$$

KYZ054-064>069-076>088-106>120-231100-
SOUTHEAST KENTUCKY

CITY           SKY/WX    TMP DP  RH WIND       PRES   REMARKS
JACKSON        CLEAR     62  57  83 CALM      30.28R
LONDON         CLEAR     57  55  93 CALM      30.27R
SOMERSET       CLEAR     55  55 100 CALM      30.27S
MIDDLESBORO    FOG       58  58 100 CALM      30.30R VSB 1
MONTICELLO     MOSUNNY  N/A N/A N/A N10       30.27R HAZE
$$





USA.gov is the U.S. government's official web portal to all federal, state and local government web resources and services.